Aérodrome :
LOGIN :

S'inscrire | Disclaimer

   EN    FR    IT 

 










Légende :    VFR   VFR Marginal   IFR   IFR Intensif   IFR Très Intensif
Visi : 
Plafond : 
>= 8 km
>= 3000ft
5 à 8 km
1000 à 3000 ft
1500m à 5 km
500 à 1000 ft
800 à 1500m
200 à 500 ft
< 800m
< 200 ft
Symboles :   Orages  Brouillard  Fortes neiges  Fortes précipitations  Vent > 20 kt
SIGMETs :   Divers  Orages  Givrage  Turbulence  Onde Orograph.  Cendres Volcan.







- Altitude de l'aérodrome : 17 ft
- Code IATA : MPL
- Voir les cartes d'approche


LFMT - Montpellier Méditerranée

DERNIER METAR :
  • 210800Z AUTO 05007KT CAVOK 20/14 Q1013 NOSIG

METARs EXPIRÉS :
  • 210730Z AUTO 04007KT CAVOK 19/14 Q1013 NOSIG
  • 210700Z AUTO 03007KT CAVOK 19/14 Q1013 NOSIG
  • 210630Z AUTO 03006KT CAVOK 17/13 Q1013 NOSIG
  • 210600Z AUTO 02006KT CAVOK 16/13 Q1013 NOSIG
  • 210530Z AUTO 02006KT CAVOK 15/13 Q1013 NOSIG

TAF TAF LFMT
Valide du 21 à 03h jusqu'au 22 à 03h UTC


210200Z 2103/2203 03005KT CAVOK
BECMG 2110/2112 14010KT
TEMPO 2112/2119 FEW030CB
BECMG 2119/2121 VRB03KT
PROB40
TEMPO 2200/2203 BKN010 SCT020TCU
ATIS : +33 4 67 13 11 70
Pas de NOTAMs connus pour ce terrain.



MET'MAP, la Météo Aéronautique d'un coup d'oeil ! - Copyright ORBIFLY Décembre 2007 - Disclaimer

ORBIFLY MET'MAP TEAM :

Programmation & Développement : Alexandra Zaïnal
Conception & Développement : Baudouin d'Aumeries
Co-Programmation & Développement : Marc-Olivier Méhu
Soutien technique & logistique : Manuel Goepfert

Contact : metmap@orbifly.com




SOURCES & CREDITS :

   NOAA